Weather History for Morrisville, VT

Change the Weather History Date:

Thursday, March 1, 2012

  Actual Average Record
Temperature  
Mean Temperature 27 °F 23 °F  
Max Temperature 29 °F 35 °F 48 °F (2004)
Min Temperature 25 °F 12 °F -11 °F (2014)
Degree Days  
Heating Degree Days 38 42  
Month to date heating degree days 38 42  
Since 1 July heating degree days 5225 6002  
Cooling Degree Days 0 0  
Month to date cooling degree days 0 0  
Year to date cooling degree days 0 0  
Moisture  
Dew Point 22 °F    
Average Humidity 87    
Maximum Humidity 92    
Minimum Humidity 81    
Precipitation  
Precipitation 0.04 in 0.04 in 0.46 in (1999)
Month to date precipitation 0.04 0.04  
Year to date precipitation 1.21 4.32  
Sea Level Pressure  
Sea Level Pressure 29.89 in    
Wind  
Wind Speed 3 mph (SE)    
Max Wind Speed 10 mph    
Max Gust Speed 15 mph    
Visibility 9 miles    
Events Snow    
T = Trace of Precipitation, MM = Missing Value Source: NWS Daily Summary

Daily Weather History Graph

Daily Weather History Graph

Search for Another Location

Airport:

Trip Planner

Search our weather history database for the weather conditions in past years. The results will help you decide how hot, cold, wet, or windy it might be!

Date:

Astronomy

Mar. 01, 2012 Rise Set
Actual Time 6:27 AM EST 5:38 PM EST
Civil Twilight 5:57 AM EST 6:08 PM EST
Nautical Twilight 5:24 AM EST 6:41 PM EST
Astronomical Twilight 4:50 AM EST 7:15 PM EST
Moon 10:45 AM EST 1:34 AM EST
Length of Visible Light 12h 10m
Length of Day
11h 11m
First Quarter, 56% of the Moon is Illuminated
Mar 1
First Quarter
Mar 8
Full
Mar 14
Last Quarter
Mar 22
New
Mar 30
First Quarter

Hourly Weather History & Observations

Time (EST) Temp. Windchill Dew Point Humidity Pressure Visibility Wind Dir Wind Speed Gust Speed Precip Events Conditions
12:24 AM 26.6 °F 22.6 °F 23.0 °F 86% 29.92 in 9.0 mi North 3.5 mph - 0.00 in Snow Light Snow
12:54 AM 26.1 °F - 23.0 °F 88% 29.94 in 9.0 mi Calm Calm - 0.00 in Snow Light Snow
1:08 AM 26.6 °F - 21.2 °F 80% 29.92 in 10.0 mi Calm Calm - 0.00 in   Overcast
1:54 AM 26.1 °F 21.9 °F 23.0 °F 88% 29.93 in 9.0 mi SSE 3.5 mph - 0.01 in Snow Light Snow
3:54 AM 27.0 °F 23.0 °F 21.0 °F 78% 29.88 in 10.0 mi Variable 3.5 mph - 0.00 in   Overcast
4:28 AM 26.6 °F 20.0 °F 21.2 °F 80% 29.83 in 10.0 mi Variable 5.8 mph - N/A   Overcast
4:54 AM 27.0 °F 19.5 °F 19.9 °F 75% 29.85 in 10.0 mi ESE 6.9 mph - 0.00 in Snow Light Snow
5:54 AM 27.0 °F 19.5 °F 21.0 °F 78% 29.84 in 10.0 mi SE 6.9 mph - 0.00 in   Overcast
6:33 AM 26.6 °F 19.1 °F 21.2 °F 80% 29.82 in 9.0 mi ESE 6.9 mph - 0.00 in Snow Light Snow
6:46 AM 26.6 °F 19.1 °F 21.2 °F 80% 29.82 in 9.0 mi ESE 6.9 mph - 0.00 in Snow Light Snow
7:32 AM 26.6 °F 21.2 °F 21.2 °F 80% 29.82 in 9.0 mi ESE 4.6 mph - 0.00 in Snow Light Snow
7:54 AM 26.1 °F 21.9 °F 23.0 °F 88% 29.85 in 9.0 mi ESE 3.5 mph - 0.00 in Snow Light Snow
8:54 AM 28.0 °F - 24.1 °F 85% 29.85 in 9.0 mi Calm Calm - 0.00 in Snow Light Snow
9:54 AM 28.0 °F 24.2 °F 24.1 °F 85% 29.85 in 9.0 mi South 3.5 mph - 0.00 in Snow Light Snow
10:36 AM 28.4 °F - 24.8 °F 86% 29.82 in 9.0 mi Calm Calm - 0.00 in Snow Light Snow
10:52 AM 28.4 °F - 26.6 °F 93% 29.82 in 9.0 mi Calm Calm - 0.01 in Snow Light Snow
10:54 AM 28.0 °F - 26.1 °F 92% 29.85 in 9.0 mi Calm Calm - 0.01 in Snow Light Snow
12:25 PM 26.6 °F 22.6 °F 24.8 °F 93% 29.83 in 9.0 mi Variable 3.5 mph - 0.01 in Snow Light Snow
12:54 PM 28.0 °F - 24.1 °F 85% 29.86 in 9.0 mi Calm Calm - 0.02 in Snow Light Snow
1:04 PM 28.4 °F - 24.8 °F 86% 29.83 in 9.0 mi Calm Calm - 0.00 in Snow Light Snow
1:44 PM 26.6 °F 21.2 °F 23.0 °F 86% 29.83 in 9.0 mi ESE 4.6 mph - 0.00 in Snow Light Snow
1:54 PM 27.0 °F 23.0 °F 23.0 °F 85% 29.87 in 9.0 mi Variable 3.5 mph - 0.00 in Snow Light Snow
2:54 PM 27.0 °F 23.0 °F 23.0 °F 85% 29.88 in 9.0 mi Variable 3.5 mph - 0.00 in Snow Light Snow
3:54 PM 27.0 °F 20.5 °F 23.0 °F 85% 29.89 in 9.0 mi Variable 5.8 mph - 0.00 in Snow Light Snow
4:34 PM 26.6 °F 22.6 °F 21.2 °F 80% 29.87 in 9.0 mi Variable 3.5 mph - 0.00 in Snow Light Snow
4:43 PM 26.6 °F - 21.2 °F 80% 29.87 in 9.0 mi Calm Calm - 0.00 in Snow Light Snow
4:54 PM 27.0 °F - 23.0 °F 85% 29.91 in 9.0 mi Calm Calm - 0.00 in Snow Light Snow
5:54 PM 26.1 °F 17.6 °F 21.0 °F 81% 29.94 in 10.0 mi ESE 8.1 mph - 0.00 in   Overcast
6:44 PM 26.6 °F - 21.2 °F 80% 29.92 in 9.0 mi Calm Calm - 0.00 in Snow Light Snow
6:54 PM 26.1 °F 21.9 °F 21.0 °F 81% 29.96 in 9.0 mi SE 3.5 mph - 0.00 in Snow Light Snow
7:54 PM 26.1 °F - 23.0 °F 88% 29.98 in 9.0 mi Calm Calm - 0.00 in Snow Light Snow
8:47 PM 24.8 °F 20.5 °F 21.2 °F 86% 29.96 in 10.0 mi South 3.5 mph - 0.00 in   Overcast
8:54 PM 25.0 °F 20.7 °F 21.9 °F 88% 29.99 in 10.0 mi Variable 3.5 mph - 0.00 in   Overcast
9:54 PM 25.0 °F 20.7 °F 21.0 °F 85% 30.00 in 10.0 mi Variable 3.5 mph - N/A   Overcast
10:54 PM 25.0 °F 17.1 °F 19.9 °F 81% 30.02 in 10.0 mi SSW 6.9 mph - N/A   Overcast
11:54 PM 25.0 °F 19.3 °F 19.0 °F 78% 30.02 in 10.0 mi SSW 4.6 mph - N/A   Overcast